Tracking 28794 objects as of 19-Apr-2024
HD Live streaming from Space Station
objects crossing your sky now

DELTA 1 DEB

Track DELTA 1 DEB now!
10-day predictions


NORAD ID: 40761
Int'l Code: 1976-077GE
Perigee: 1,499.0 km
Apogee: 1,780.0 km
Inclination: 102.5 °
Period: 118.9 minutes
Semi major axis: 8010 km
RCS: Unknown
Launch date: July 29, 1976
Source: United States (US)
Launch site: AIR FORCE WESTERN TEST RANGE (AFWTR)

Note: This is SATELLITE DEBRIS
Your satellite tracking list
Your tracking list is empty




NASA's NSSDC Master Catalog

Two Line Element Set (TLE):
1 40761U 76077GE  24110.24331629 -.00000103  00000-0 -60924-3 0  9993
2 40761 102.4513  48.7484 0175393 272.7323  85.3659 12.10908608250621
Source of the keplerian elements: AFSPC